Regional Weather Roundup
Issued by NWS

Home | Current Version | Previous Version | Text Only | Print | Product List | Glossary On
Versions: 1 2 3 4 5 6 7 8 9 10 11 12 13 14 15 16 17 18 19 20 21 22 23 24 25 26 27 28 29 30 31 32 33 34 35 36 37 38 39 40 41 42 43 44 45 46 47 48 49 50
000
ASUS46 KSTO 230915
RWRCA

NORTHERN AND CENTRAL CA REGIONAL WEATHER ROUNDUP
NATIONAL WEATHER SERVICE SACRAMENTO CA
200 AM PDT TUE MAY 23 2017

NOTE: FAIR INDICATES FEW OR NO CLOUDS BELOW 12,000 FEET WITH NO
SIGNIFICANT WEATHER AND/OR OBSTRUCTIONS TO VISIBILITY.

CAZ001-003-231000-
NORTHWEST AREA

CITY           SKY/WX    TMP DP  RH WIND       PRES   REMARKS
CRESCENT CITY  PTCLDY    52  51  97 N6        29.96F FOG
UKIAH          CLEAR     61  53  75 CALM      29.95S
$$

CAZ006-505>513-231000-
BAY AREA

CITY           SKY/WX    TMP DP  RH WIND       PRES   REMARKS
SANTA ROSA     CLEAR     49  48  97 SE5       29.94S
SAN RAFAEL     N/A       57  MM  MM MISG
NAPA           CLEAR     56  52  86 SW3       29.94F
CONCORD        CLEAR     59  54  83 NW6       29.92F
OAKLAND CITY   N/A      MM  MM  MM MISG
OAKLAND        PTCLDY    56  54  93 NW8       29.96F
SAN FRAN CITY  N/A       53  MM  97 MISG
SAN FRAN ARPT  PTCLDY    54  50  86 W12       29.95F
LIVERMORE      CLEAR     63  48  58 NW5       29.92F
HAYWARD        CLEAR     57  49  74 NW3       29.95F
REDWOOD CITY   N/A       57  MM  84 MISG
MOFFETT ARPT   CLEAR     59  55  87 W3        29.95F
SAN JOSE ARPT  CLEAR     60  56  86 NW3       29.95F
$$
CAZ034-037-514>518-231000-
CENTRAL COAST

CITY           SKY/WX    TMP DP  RH WIND       PRES   REMARKS
WATSONVILLE    CLOUDY    52  52 100 SW3       29.98F FOG
SALINAS        CLOUDY    56  52  86 NW6       29.98F
MONTEREY       CLOUDY    53  52  96 S5        29.99S
SAN LUIS OBISP CLOUDY    53  51  93 NW6       29.98F FOG
SANTA MARIA    CLOUDY    51  51 100 CALM      29.98F FOG
$$
CAZ015-016-231000-
NORTHERN SACRAMENTO VALLEY

CITY           SKY/WX    TMP DP  RH WIND       PRES   REMARKS
REDDING        CLEAR     68  56  65 N3        29.90F
RED BLUFF      CLEAR     65  54  67 NW8       29.90S
OROVILLE       CLEAR     79  53  40 E6        29.89S
$$
CAZ016>018-231000-
SOUTHERN SACRAMENTO VALLEY

CITY           SKY/WX    TMP DP  RH WIND       PRES   REMARKS
AUBURN         CLEAR     72  54  53 E5        29.96S
BEALE AFB      CLEAR     73  56  55 CALM      29.86S
LINCOLN        FAIR      70  54  56 E5        29.87S
MARYSVILLE     CLEAR     67  58  72 CALM      29.87S
SAC INTL ARPT  CLEAR     69  56  62 S9        29.87S
MATHER AIRPORT NOT AVBL
DOWNTOWN SAC   N/A       69  MM  MM MISG
SAC EXEC ARPT  CLEAR     65  55  70 CALM      29.89S
VACAVILLE      CLEAR     67  52  58 CALM      29.88F
TRAVIS AFB     CLEAR     58  52  80 SW18      29.86F
$$
CAZ019>021-231000-
SAN JOAQUIN VALLEY

CITY           SKY/WX    TMP DP  RH WIND       PRES   REMARKS
STOCKTON       CLEAR     67  56  67 NE5       29.88S
MODESTO        CLEAR     74  57  55 N5        29.87F
MERCED         CLEAR     72  55  55 N6        29.87S
LEMOORE        CLEAR     70  44  39 N9        29.88F
FRESNO         CLEAR     74  55  51 NW8       29.88F
HANFORD        CLEAR     72  56  57 CALM      29.89R
PORTERVILLE      N/A     68  51  54 CALM      29.90F
BAKERSFIELD    CLEAR     77  44  30 CALM      29.89F
$$
CAZ011-012-071-231000-
NORTHERN MOUNTAINS

CITY           SKY/WX    TMP DP  RH WIND       PRES   REMARKS
YREKA          CLEAR     56  44  64 N3        30.08S
MOUNT SHASTA   CLEAR     54  42  64 NE3       30.11S
ALTURAS        CLEAR     50  41  71 E3        30.17F
$$
CAZ011-012-071-231000-
SIERRA NEVADA MTNS

CITY           SKY/WX    TMP DP  RH WIND       PRES   REMARKS
BLUE CANYON    CLEAR     66  40  38 VRB7      30.20F
TRUCKEE        CLEAR     43  41  93 CALM      30.28F
TAHOE VLY ARPT CLEAR     46  40  79 CALM      30.28F
MAMMOTH LAKES  FAIR      50  32  49 W10       30.32F
$$




USA.gov is the U.S. government's official web portal to all federal, state and local government web resources and services.